Location: Prague
(50.0830°N, 14.4670°E)
Time: 17:36:00
(UTC+02:00)

Envisat - Pass Details

Date: 01 October 2021
Orbit: 764 x 766 km, 98.2° (Epoch: 18 October)

Event Time Altitude Azimuth Distance (km) Brightness Sun altitude
Rises 05:32:18 0° 21° (NNE) 3,243 6.7 -15.2°
Reaches altitude 10° 05:34:50 10° 30° (NNE) 2,312 6.1 -14.8°
Maximum altitude 05:39:27 34° 95° (E) 1,257 4.8 -14.0°
Drops below altitude 10° 05:44:01 10° 160° (SSE) 2,296 5.6 -13.3°
Sets 05:46:30 0° 169° (S) 3,217 6.2 -12.9°
